Temperature
16 15 15 15 15 14 14 14 14 14 13 13 13 13 13 13 13 13 12 12 12 12 12 12 12 12 12 12 12 12 12 12 12 12 11 11 11 11 11 11 11 10 11
16 16 15 15 15 14 14 14 14 14 13 13 13 13 13 13 12 12 12 12 12 12 12 12 12 12 12 12 12 12 12 11 11 11 11 11 11 11 11 11 10 10 10
16 15 15 15 15 14 14 14 14 13 13 13 13 13 13 13 12 12 12 12 12 12 12 12 12 12 12 12 11 11 11 11 11 11 11 11 11 10 10 10 10 10 10
15 15 15 15 14 14 14 14 14 13 13 13 13 13 13 12 12 12 12 12 12 12 12 12 12 11 11 11 11 11 11 11 11 11 11 10 10 10 10 10 10 10 10
15 15 15 15 14 14 14 14 13 13 13 13 13 13 13 12 12 12 12 12 12 12 12 12 12 12 12 11 11 11 11 11 10 10 10 10 10 10 10 10 10 10 10
15 14 14 14 14 14 13 13 13 13 13 13 13 12 12 12 12 12 12 12 12 12 12 12 11 11 11 11 11 11 11 10 10 10 10 10 10 10 10 10 9 9 9
14 14 14 14 14 13 13 13 13 13 13 13 12 12 12 12 12 12 12 12 11 11 11 11 11 11 11 11 11 11 11 11 10 10 10 10 10 10 10 9 9 9 9
14 14 14 13 13 13 13 13 13 12 12 12 12 12 12 12 12 12 12 11 11 11 11 11 11 11 11 11 10 10 10 10 10 10 10 10 9 10 9 9 9 9 9
14 14 14 13 13 13 13 13 12 12 12 12 12 12 12 12 12 12 12 11 11 11 11 11 10 10 11 10 10 10 10 10 10 10 10 10 10 10 9 9 9 8 8
14 14 13 13 13 13 13 12 12 12 12 12 12 12 12 12 12 12 11 11 11 11 11 11 11 10 10 10 10 10 9 9 9 9 9 9 9 9 9 9 8 8 8
14 13 13 13 13 13 12 12 12 12 12 12 12 12 12 12 12 12 11 11 11 11 10 10 10 10 10 10 10 9 9 9 9 9 9 8 9 9 8 8 8 8 8
13 13 13 13 13 12 12 12 12 12 12 11 11 11 11 11 11 11 11 11 11 10 10 10 10 10 10 10 10 9 9 9 8 8 8 8 8 8 8 8 8 8 8
13 13 13 13 12 12 12 12 12 11 11 11 11 11 11 11 11 11 11 11 10 10 10 10 10 10 10 9 9 9 9 8 8 8 8 8 8 8 7 8 7 8 7
12 12 12 12 12 12 12 11 11 11 11 11 11 10 10 10 10 10 10 10 10 10 9 9 9 9 9 9 9 8 8 8 8 8 8 8 7 7 7 7 7 7 7
12 12 12 11 11 11 11 11 11 11 11 10 10 10 10 10 10 10 10 10 9 9 9 9 8 8 8 8 8 8 8 8 7 7 7 7 7 7 7 6 6 6 6
11 11 11 11 11 10 10 10 10 10 10 10 10 10 10 10 10 10 9 9 9 9 8 8 8 8 8 8 7 7 7 7 7 7 7 6 6 6 6 6 6 6 6
11 11 10 10 10 10 10 10 10 10 10 10 9 9 9 9 9 9 9 9 8 8 8 7 7 7 7 7 7 7 7 7 6 6 6 6 6 6 6 6 5 5 5
10 10 10 10 10 10 9 9 9 9 9 9 9 9 9 9 8 8 8 8 7 7 7 7 7 7 7 6 6 6 6 6 6 6 6 6 5 5 5 5 5 5 5
10 10 10 10 9 9 9 9 9 9 9 9 9 8 8 8 8 8 7 7 7 7 7 7 7 6 6 6 6 6 6 6 5 5 5 5 5 5 5 4 4 4 4
9 9 9 9 9 9 9 9 9 8 8 8 8 8 8 7 7 7 7 7 7 6 6 6 6 6 6 6 6 6 5 5 5 5 5 5 4 4 4 4 4 4 4
8 8 8 8 8 8 8 8 8 8 8 8 8 8 7 7 7 7 7 7 6 6 6 6 6 5 5 5 5 5 5 5 4 4 4 4 4 4 4 4 4 4 3
8 8 8 8 8 8 7 7 7 7 7 7 7 7 7 7 7 7 6 6 6 6 6 6 5 5 5 5 5 5 4 4 4 4 4 4 4 3 3 3 3 3 3
7 7 7 7 7 7 7 7 7 7 7 6 6 6 6 6 6 6 6 6 6 5 5 5 5 5 5 5 5 4 4 4 4 4 3 3 3 3 3 3 3 2 2
7 7 7 6 6 6 6 6 6 6 6 6 6 6 6 6 6 6 6 5 5 5 5 5 5 5 5 5 4 4 4 4 4 3 3 3 3 3 2 2 2 2 2
6 6 6 6 6 6 6 6 6 5 5 5 5 5 5 5 5 5 5 5 5 5 5 5 4 4 4 4 4 4 4 4 4 3 3 3 2 2 2 2 2 2 1
5 5 5 5 5 5 5 5 5 5 5 5 5 5 5 4 5 5 5 4 4 4 4 4 4 4 4 4 3 3 3 3 3 3 3 2 2 2 1 1 1 1 1
Wind_Speed
6 7 7 7 7 7 7 7 6 5 6 5 5 5 5 5 5 5 5 5 5 4 4 4 4 3 2 2 2 3 3 3 3 2 2 2 3 3 2 3 3 3 3
5 6 7 7 7 8 8 7 7 6 6 6 6 5 5 5 5 5 5 5 5 5 5 5 4 3 4 3 3 4 3 3 4 4 3 3 3 3 3 3 3 3 3
5 6 6 6 7 7 7 7 7 7 7 6 6 6 6 6 6 6 6 6 6 6 5 5 5 5 5 4 4 4 3 3 3 4 4 3 3 3 3 3 4 3 3
5 6 6 6 6 6 6 6 7 7 7 7 7 7 7 6 7 7 7 6 6 6 6 6 6 6 6 5 4 5 4 4 4 4 4 4 4 4 4 4 4 3 3
5 6 6 6 5 5 5 6 6 6 7 7 7 7 7 6 6 7 7 6 6 6 6 6 5 4 3 4 4 5 5 4 4 5 5 5 4 4 4 4 4 3 3
5 6 5 5 5 5 6 6 6 6 6 6 7 7 7 6 5 5 7 7 7 7 6 6 5 6 6 7 6 6 6 6 6 5 5 6 6 5 4 4 4 4 4
5 5 5 5 5 6 5 5 6 6 6 6 6 7 7 6 6 7 8 8 7 7 7 6 5 5 6 7 8 9 8 8 8 8 7 7 6 6 6 6 5 5 4
5 5 5 5 5 5 6 6 6 6 5 6 6 6 6 5 7 8 8 8 7 7 7 7 7 6 6 6 6 6 6 6 7 8 7 7 6 5 5 5 5 5 5
4 5 5 5 5 5 6 6 6 6 6 6 6 6 6 5 6 7 7 6 7 7 7 6 7 7 4 5 6 6 6 5 4 5 5 5 3 3 4 4 5 5 5
4 5 5 5 5 6 6 6 5 5 5 5 5 5 6 5 5 7 8 5 6 6 5 6 5 6 4 6 7 7 7 6 5 5 5 6 6 6 7 7 6 6 5
4 4 4 5 5 6 5 5 5 5 5 5 5 5 5 5 6 7 7 6 6 5 5 5 4 5 5 6 7 6 5 5 5 5 5 4 4 4 5 6 5 5 5
3 4 4 5 4 4 4 4 5 5 5 5 5 4 4 4 4 5 7 6 6 6 5 5 4 5 6 6 6 5 5 5 5 5 5 5 5 4 4 5 5 5 5
3 4 4 4 4 5 5 5 4 5 5 5 4 4 3 3 3 5 6 6 6 5 4 3 3 4 5 6 6 7 7 6 5 5 5 5 5 5 4 4 5 4 5
3 4 3 4 4 4 4 4 4 5 5 5 5 5 4 4 3 3 3 4 5 5 4 3 4 4 5 4 5 6 6 5 5 6 5 5 4 3 4 4 4 4 4
3 3 3 3 3 4 4 3 5 4 4 5 5 5 5 5 4 3 3 3 4 3 3 4 4 4 5 5 5 5 5 5 5 5 5 5 5 4 4 4 4 4 5
4 3 3 3 3 3 4 3 0 2 1 2 3 4 4 3 3 5 5 4 3 3 4 5 5 5 6 6 6 5 5 5 5 6 6 6 6 5 5 4 4 5 5
5 4 3 3 3 4 4 4 3 2 1 2 3 4 4 4 5 5 5 5 5 5 5 5 5 5 5 5 6 6 6 6 5 5 6 6 6 5 5 5 5 5 6
5 4 4 3 4 4 5 4 4 4 3 3 3 4 5 5 5 5 5 5 4 5 5 6 5 5 5 5 5 5 5 5 5 5 5 5 5 5 6 6 6 6 6
4 4 4 4 4 4 4 4 4 5 4 3 3 3 5 5 5 5 6 4 5 5 5 5 5 5 5 5 5 5 5 5 5 5 5 5 5 5 6 6 6 6 6
4 4 4 4 3 3 3 4 4 4 4 4 4 3 3 4 3 4 5 5 5 5 5 5 5 5 5 5 5 5 5 5 6 6 5 5 5 5 6 7 6 6 6
4 4 4 4 4 3 3 4 4 4 4 4 4 3 4 5 5 5 5 5 5 6 6 6 5 5 5 5 5 6 7 6 6 6 6 6 5 5 6 6 6 6 6
4 4 4 4 4 4 4 4 4 4 5 5 4 3 6 5 5 5 5 5 5 5 5 5 5 5 5 5 6 6 6 6 6 6 6 6 6 6 6 6 6 6 6
4 4 4 4 4 4 4 4 4 4 5 5 4 4 5 5 5 5 5 5 5 5 5 5 5 5 5 5 6 6 6 7 6 6 6 6 6 6 6 6 7 6 6
4 4 4 4 4 4 4 4 4 4 4 4 4 5 5 5 5 5 5 5 5 5 5 5 6 6 7 6 5 6 6 6 6 6 7 7 6 6 6 6 6 7 7
4 4 4 4 4 4 4 4 4 4 4 4 5 5 5 5 5 5 5 5 5 5 5 5 5 6 7 7 6 5 5 5 6 5 6 6 6 6 6 6 6 5 6
4 4 4 4 4 4 4 4 4 4 4 4 4 4 5 5 5 5 5 5 5 5 5 5 6 6 7 6 6 5 4 5 7 7 6 5 6 6 6 5 6 6 6
Wind_Direction
210 212 212 214 214 213 218 219 220 219 216 219 223 227 226 220 216 212 219 218 218 212 209 211 215 218 220 221 223 234 245 253 250 250 245 226 218 231 208 228 226 216 193
210 212 215 214 215 217 219 219 218 220 221 226 226 230 228 224 222 218 215 216 217 219 218 217 220 212 221 226 227 230 230 240 244 248 240 229 234 236 237 236 232 229 229
206 210 212 213 216 219 219 219 220 221 223 224 226 229 227 224 220 222 221 218 218 223 226 226 227 221 223 224 230 238 236 232 239 242 241 234 236 234 236 236 231 233 239
207 211 216 217 216 220 219 219 222 224 227 228 227 228 228 225 222 221 221 224 225 227 231 231 234 233 234 232 232 237 234 227 230 234 239 237 234 230 233 239 236 228 237
213 217 222 224 219 220 220 222 225 227 231 231 231 230 226 225 226 223 220 225 229 231 233 233 235 244 274 255 247 237 231 231 228 233 239 241 236 229 234 238 245 248 240
220 224 224 223 218 217 220 222 226 227 228 229 231 231 227 225 208 223 235 227 231 232 234 234 228 223 220 220 235 247 253 242 240 240 244 243 242 239 240 241 244 247 247
221 222 218 217 215 217 218 221 223 224 225 227 229 229 229 220 192 207 228 236 236 237 236 235 233 232 227 231 218 216 230 240 250 253 252 252 247 240 236 238 239 246 257
223 224 219 218 219 218 216 218 223 226 223 225 228 228 231 224 197 206 217 230 237 238 238 238 236 235 233 237 236 232 236 234 232 239 246 252 251 248 242 241 244 249 252
230 232 224 218 218 220 217 217 221 224 226 227 229 228 227 222 198 202 215 227 232 235 236 239 244 243 218 225 233 236 237 236 219 229 259 263 276 261 242 230 228 230 240
242 246 231 221 216 218 221 220 219 218 221 224 226 228 225 227 195 197 216 227 231 233 235 234 237 243 221 218 228 234 240 240 232 220 219 220 225 215 211 225 232 232 239
249 247 236 227 223 222 221 219 215 213 213 219 222 225 225 224 199 194 212 229 231 232 233 235 231 200 216 227 236 239 243 250 243 240 236 235 231 228 220 221 229 233 239
246 243 239 231 222 217 214 216 215 209 208 215 219 224 229 220 212 198 204 228 247 240 242 242 231 196 211 223 228 227 228 239 241 238 235 235 236 233 229 224 225 231 244
241 239 238 232 221 215 210 209 210 209 214 218 219 224 225 226 206 193 202 212 229 241 248 253 244 219 218 221 212 214 219 230 231 234 236 237 239 238 229 229 231 233 240
240 244 240 235 227 220 212 207 208 212 216 219 218 221 223 221 220 213 211 211 209 226 236 221 215 230 234 228 219 220 228 231 232 235 239 241 239 231 226 226 227 223 232
244 246 245 241 232 221 213 222 223 225 229 226 225 222 221 226 218 198 217 222 222 225 224 229 231 228 234 230 227 229 229 226 228 233 235 234 233 231 229 230 230 229 235
250 251 247 244 233 224 216 218 263 250 190 243 264 245 234 224 174 183 202 210 210 197 215 229 234 236 239 238 233 232 231 230 232 233 232 232 231 228 228 229 228 231 234
254 254 249 244 236 229 224 221 222 217 182 211 227 227 230 205 194 198 197 192 195 193 224 238 241 243 246 248 244 239 237 236 236 235 235 233 233 231 229 227 228 233 236
260 254 246 244 240 235 231 228 227 224 225 238 226 214 208 195 190 188 182 180 210 215 234 240 242 244 244 246 247 243 240 237 234 235 235 232 231 231 232 231 231 234 237
267 258 248 247 243 240 234 228 227 227 229 228 227 212 196 190 183 185 184 212 225 232 239 243 243 243 244 244 246 245 241 239 236 233 234 233 232 232 234 235 237 235 239
268 271 257 247 243 241 237 232 230 228 228 225 226 225 195 193 208 202 208 221 229 235 239 241 241 244 243 241 241 240 238 237 238 236 235 234 233 234 237 236 236 238 237
273 264 246 248 247 243 240 238 235 232 230 230 232 219 197 211 219 219 219 223 229 235 239 240 239 239 240 239 239 239 238 236 234 234 231 230 229 229 234 237 236 237 240
272 269 256 249 249 248 247 243 241 238 236 237 240 216 196 217 224 226 227 230 233 238 240 240 240 238 237 235 236 238 239 235 233 232 231 231 230 231 234 235 234 233 235
265 262 258 254 251 246 244 245 244 244 241 238 234 227 218 226 229 230 233 235 234 235 235 233 236 237 237 236 235 237 241 238 232 229 227 229 231 231 229 230 231 232 231
267 259 256 257 256 253 250 249 247 247 247 243 238 234 230 232 234 235 239 242 240 239 238 237 239 239 240 241 239 238 241 240 233 228 226 226 226 228 229 228 230 231 231
268 265 261 258 257 257 256 252 248 246 247 248 243 238 236 235 235 235 238 239 240 241 241 239 240 241 241 243 244 244 237 226 222 228 225 224 224 224 225 227 226 227 227
263 262 263 262 260 258 256 253 248 248 249 251 250 247 244 241 238 237 238 238 238 240 241 240 243 245 244 241 242 241 229 214 210 216 224 223 223 222 221 224 223 223 222
Height
1523 1524 1525 1526 1527 1529 1529 1530 1531 1532 1532 1533 1533 1533 1533 1533 1533 1533 1534 1534 1534 1534 1534 1535 1535 1535 1535 1535 1535 1536 1536 1536 1536 1535 1535 1534 1534 1534 1533 1533 1533 1532 1532
1520 1522 1522 1523 1524 1525 1526 1527 1528 1529 1530 1530 1530 1530 1530 1530 1531 1531 1531 1531 1531 1532 1532 1532 1533 1533 1533 1533 1533 1533 1533 1533 1534 1533 1533 1532 1532 1532 1531 1531 1530 1530 1530
1517 1519 1520 1520 1521 1522 1523 1524 1525 1526 1526 1527 1527 1527 1527 1527 1528 1528 1528 1529 1529 1529 1529 1530 1530 1530 1530 1530 1530 1530 1530 1530 1530 1530 1530 1529 1529 1529 1529 1528 1528 1528 1528
1514 1515 1517 1518 1518 1519 1520 1521 1521 1522 1523 1523 1524 1524 1524 1524 1525 1525 1525 1526 1526 1526 1527 1527 1527 1527 1527 1527 1527 1527 1527 1527 1527 1527 1527 1527 1526 1526 1526 1526 1526 1525 1525
1511 1512 1513 1515 1515 1516 1517 1517 1518 1518 1519 1519 1520 1520 1520 1521 1521 1522 1522 1523 1523 1524 1524 1524 1524 1524 1524 1524 1524 1524 1524 1524 1524 1524 1524 1524 1523 1523 1523 1523 1523 1523 1522
1508 1509 1510 1511 1511 1512 1513 1513 1514 1514 1515 1515 1516 1516 1516 1516 1517 1518 1519 1520 1520 1520 1520 1520 1520 1520 1520 1520 1520 1520 1520 1521 1521 1521 1520 1520 1520 1520 1520 1520 1520 1520 1520
1505 1505 1506 1507 1507 1508 1509 1509 1510 1510 1511 1511 1512 1512 1512 1513 1513 1514 1515 1516 1516 1517 1517 1517 1517 1516 1516 1516 1516 1516 1516 1516 1516 1517 1517 1516 1516 1516 1516 1516 1516 1516 1517
1501 1502 1502 1503 1504 1504 1505 1505 1506 1506 1507 1507 1508 1508 1508 1509 1509 1510 1511 1512 1512 1512 1513 1513 1513 1513 1512 1512 1513 1512 1512 1512 1511 1511 1511 1511 1512 1512 1512 1513 1513 1513 1513
1497 1498 1498 1499 1500 1500 1501 1501 1502 1502 1503 1503 1504 1504 1504 1505 1505 1506 1507 1507 1508 1508 1508 1509 1509 1509 1508 1508 1509 1508 1508 1507 1507 1507 1507 1507 1507 1507 1508 1508 1508 1509 1509
1494 1494 1495 1496 1496 1496 1497 1497 1498 1498 1499 1499 1499 1500 1500 1501 1501 1502 1503 1503 1503 1504 1504 1504 1504 1504 1504 1504 1504 1504 1504 1504 1504 1503 1503 1502 1502 1502 1503 1504 1504 1505 1505
1490 1490 1491 1492 1492 1493 1493 1493 1494 1494 1495 1495 1495 1496 1496 1497 1497 1498 1498 1499 1499 1499 1499 1499 1499 1499 1500 1500 1500 1500 1500 1500 1500 1499 1499 1499 1498 1498 1499 1499 1499 1500 1501
1487 1487 1487 1488 1488 1489 1489 1489 1490 1490 1490 1491 1491 1492 1492 1493 1493 1493 1494 1494 1495 1495 1495 1495 1495 1495 1495 1495 1495 1495 1495 1495 1495 1495 1495 1495 1494 1494 1494 1495 1495 1496 1496
1483 1483 1483 1484 1484 1485 1485 1485 1486 1486 1487 1487 1487 1488 1488 1488 1489 1489 1489 1490 1490 1490 1490 1490 1490 1490 1490 1490 1490 1490 1491 1491 1491 1491 1490 1490 1490 1490 1490 1491 1491 1491 1491
1480 1480 1480 1480 1480 1480 1481 1481 1481 1481 1482 1482 1483 1483 1483 1484 1484 1485 1485 1485 1485 1486 1486 1486 1486 1486 1485 1485 1485 1485 1486 1486 1486 1486 1486 1486 1486 1486 1486 1486 1486 1486 1487
1476 1476 1476 1476 1476 1476 1476 1476 1477 1477 1478 1478 1478 1479 1479 1479 1480 1481 1481 1481 1481 1481 1481 1481 1481 1481 1481 1481 1481 1481 1481 1481 1481 1481 1481 1481 1482 1482 1481 1482 1482 1482 1483
1473 1473 1472 1472 1472 1472 1472 1472 1472 1473 1473 1473 1474 1475 1475 1475 1476 1476 1476 1477 1477 1477 1477 1477 1477 1477 1476 1476 1476 1476 1476 1476 1476 1476 1476 1476 1477 1477 1477 1477 1478 1478 1478
1470 1469 1469 1468 1468 1468 1468 1467 1467 1468 1468 1469 1469 1470 1470 1471 1471 1471 1471 1472 1472 1473 1473 1472 1472 1472 1472 1471 1472 1472 1471 1471 1471 1471 1471 1472 1472 1472 1473 1473 1473 1473 1474
1466 1465 1464 1464 1464 1463 1463 1463 1463 1463 1463 1464 1465 1465 1466 1466 1467 1467 1467 1467 1467 1467 1467 1467 1467 1467 1467 1467 1466 1466 1466 1466 1466 1466 1466 1467 1467 1467 1467 1468 1468 1468 1469
1461 1461 1460 1460 1459 1459 1459 1459 1459 1459 1459 1460 1460 1461 1461 1462 1462 1462 1462 1462 1462 1462 1462 1462 1462 1462 1461 1461 1461 1461 1460 1461 1461 1461 1461 1461 1462 1462 1462 1463 1463 1463 1464
1457 1457 1456 1455 1455 1455 1454 1454 1454 1455 1455 1455 1455 1456 1456 1457 1457 1457 1457 1457 1457 1457 1457 1457 1457 1456 1456 1456 1455 1455 1455 1454 1455 1455 1455 1456 1456 1457 1457 1457 1458 1458 1458
1453 1452 1451 1451 1451 1450 1450 1450 1450 1450 1450 1450 1451 1451 1452 1452 1452 1452 1452 1452 1452 1452 1452 1452 1452 1451 1451 1450 1450 1449 1449 1449 1449 1449 1449 1450 1451 1451 1452 1452 1452 1453 1453
1449 1448 1447 1446 1446 1446 1445 1445 1446 1445 1445 1445 1446 1446 1447 1447 1447 1448 1448 1448 1448 1448 1447 1447 1447 1446 1445 1445 1444 1444 1444 1443 1443 1444 1444 1444 1445 1446 1446 1447 1447 1448 1448
1444 1443 1442 1442 1441 1441 1441 1441 1441 1441 1440 1440 1441 1441 1441 1442 1442 1442 1443 1443 1442 1442 1442 1442 1441 1441 1440 1440 1439 1439 1438 1438 1438 1438 1439 1439 1440 1440 1441 1441 1441 1442 1442
1439 1438 1438 1437 1437 1437 1436 1436 1436 1436 1436 1436 1436 1436 1436 1436 1437 1437 1437 1437 1437 1437 1436 1436 1436 1436 1435 1434 1434 1433 1433 1433 1433 1433 1434 1434 1434 1435 1435 1436 1436 1436 1437
1435 1434 1434 1433 1433 1432 1432 1432 1431 1431 1431 1431 1431 1430 1430 1431 1431 1431 1431 1432 1431 1431 1431 1431 1431 1430 1430 1429 1429 1428 1428 1428 1428 1428 1428 1429 1429 1429 1430 1430 1431 1431 1432
1430 1430 1429 1429 1428 1428 1427 1427 1426 1426 1426 1426 1425 1425 1425 1425 1425 1426 1426 1426 1426 1426 1425 1425 1425 1425 1424 1424 1423 1423 1423 1423 1423 1423 1423 1423 1423 1424 1424 1425 1426 1426 1427